STARLINK-32336, 61004

Orbit data source: Space-Track

STARLINK-32336, 61004 is a payload satellite owned by SpaceX/Seattle (US) in LEO that was launched on Thu, 05 Sep 2024 UTC via an FALCON 9 launch vehicle from the Air Force Eastern Test Range (AFETR). Payload-class satellites include a variety of spacecraft equipped with specific instruments for various scientific and technological missions. These include communications satellites like Starlink; space stations such as the ISS; scientific satellites like the Hubble; Earth observation satellites from companies like Planet Labs, Umbra, and HawkEye 360; GPS; miniature CubeSats for education and research; and military/defense satellites.

Loading next visibility...
Identifier
61004, 2024-158Q
Orbit
LEO
Country
Flag of USUS
Related business
Manufacturer
SpaceX/Seattle
Mission
Operational Commercial Communications
Bus & Motor
STARLINK V2M, Unknown motor
Mass
730 kg wet, ~700 kg dry
Launch date (UTC)
2024-09-05 (1 year ago)
Launch vehicle
FALCON 9
Launch site
Air Force Eastern Test Range (AFETR)
Object type
Payload
Rocket body
Debris
Shape & HBR
Box + 2 Pan, 17.7 m
Radar Cross Section
33.884 m², Large (>1 m²)

Expand to show TLE details & history
Last TLE update: 23 hours ago

TLE from 23 hours ago
0 STARLINK-32336
1 61004U 24158Q   26034.80716190 -.00000877  00000-0 -17494-4 0  9991
2 61004  53.1593 222.9160 0001002  77.5248 282.5865 15.30194794 80464
Epoch: 2026-02-03T19:22Z
TLE epoch observation values (Epoch: 2026-02-03T19:22:18.788Z)
Latitude
0.00001°
Longitude
158.35492°
Altitude
475.981 km
Speed
7.629 km/s
True Right ascension
14h 51m 39s
True Declination
0° 00' 00"
Sunlit
Object was in daylight at epoch
Visualization orbit readout
Latitude
Unknown
Longitude
Unknown
Altitude
Unknown
Speed
Unknown
Apparent Right ascension
Unknown
Apparent Declination
Unknown
Sunlit
N/A
Visualization observer readout
Local Sidereal Time
19:58:47
Azimuth
Unknown
Elevation
Unknown
Doppler factor
Unknown
Orbital elements
Apogee altitude
476.174 km
Perigee altitude
474.8 km
Semi-major axis
6,853.624 km
Eccentricity
0.0001
Inclination
53.1593°
RAAN
222.916°
Arg. of periapsis
77.5248°
True anomaly
282.57529°
Mean anomaly
282.5865°
Eccentric anomaly
282.5809°
Mean motion
3.82528 °/min
Orbital period
94.11 mins
BSTAR
-0.000017494
Loading maneuver chart data...
Computing Atmospheric mass density...
Loading historical data...
Loading historical data...
Loading historical data...
Loading historical data...
Loading historical data...
Loading historical data...
Loading historical data...

Documentation

Showing up to 5 results
|